Location: Appleton
(44.2618°N, 88.4157°W)
Time: 16:37:51
(UTC+00:00)

Tiros 1 - Visible Passes

Search period start: 27 February 2021 00:00
Search period end: 09 March 2021 00:00
Orbit: 630 x 664 km, 48.4° (Epoch: 26 February)

Date Brightness Start Highest point End Pass type
(mag) Time Alt. Az. Time Alt. Az. Time Alt. Az.
27 Feb 8.4 10:17:11 31° SSE 10:18:11 34° SE 10:22:30 10° ENE visible
27 Feb 7.2 11:55:20 10° WSW 12:00:10 77° NNW 12:05:00 10° ENE visible
28 Feb 10.0 09:04:36 12° ESE 09:04:36 12° ESE 09:05:15 10° E visible
28 Feb 7.4 10:42:15 37° SW 10:43:58 63° SSE 10:48:44 10° ENE visible
01 Mar 9.1 09:29:35 25° ESE 09:29:35 25° ESE 09:32:15 10° E visible
01 Mar 7.2 11:07:15 26° WSW 11:09:57 81° NNW 11:14:47 10° ENE visible
02 Mar 7.8 09:54:30 52° ESE 09:54:30 52° ESE 09:58:31 10° ENE visible
02 Mar 7.5 11:32:09 15° W 11:36:04 59° NNW 11:40:51 10° ENE visible
03 Mar 10.2 08:41:42 11° E 08:41:42 11° E 08:41:59 10° E visible
03 Mar 7.0 10:19:21 75° W 10:19:44 84° NNW 10:24:35 10° ENE visible
04 Mar 9.4 09:06:30 22° ENE 09:06:30 22° ENE 09:08:18 10° ENE visible
04 Mar 7.4 10:44:09 37° WNW 10:45:51 60° NNW 10:50:38 10° ENE visible
05 Mar 8.4 09:31:16 40° ENE 09:31:16 40° ENE 09:34:22 10° ENE visible
05 Mar 7.7 11:08:55 20° WNW 11:12:04 52° N 11:16:46 10° ENE visible
06 Mar 7.5 09:56:00 60° NNE 09:56:00 60° NNE 10:00:25 10° ENE visible
06 Mar 7.7 11:33:39 10° WNW 11:38:18 54° N 11:43:01 10° E visible
07 Mar 9.8 08:43:05 17° ENE 08:43:05 17° ENE 08:44:09 10° ENE visible
07 Mar 7.7 10:20:44 42° NW 10:21:49 52° N 10:26:33 10° ENE visible
08 Mar 9.0 09:07:48 28° ENE 09:07:48 28° ENE 09:10:12 10° ENE visible
08 Mar 7.7 10:45:27 25° WNW 10:48:04 53° N 10:52:47 10° E visible
